Regional Weather Roundup
Issued by NWS

Current Version | Previous Version | Text Only | Print | Product List | Glossary On
Versions: 1 2 3 4 5 6 7 8 9 10 11 12 13 14 15 16 17 18 19 20 21 22 23 24 25 26 27 28 29 30 31 32 33 34 35 36 37 38 39 40 41 42 43 44 45 46 47 48 49 50
000
ASUS46 KLOX 280512
RWRCA

SOUTHERN CALIFORNIA WEATHER ROUNDUP
NATIONAL WEATHER SERVICE OXNARD CALIFORNIA
900 PM PST THU NOV 27 2014

NOTE: "FAIR" INDICATES FEW OR NO CLOUDS BELOW 12,000 FEET WITH NO
SIGNIFICANT WEATHER AND/OR OBSTRUCTIONS TO VISIBILITY.

  -  STATIONS PRECEEDED BY AN ASTERISK (*) ARE NOT NWS OR FAA
     STATIONS AND ARE NOT SUBJECT TO NWS AND FAA QUALITY CONTROL.

CAZ041-042-087-280600-
LA AND ORANGE COUNTY COASTAL AREAS


CITY           SKY/WX    TMP DP  RH WIND       PRES   REMARKS
L.A. DOWNTOWN  CLEAR     63  47  55 CALM      30.01S
L.A. AIRPORT   CLEAR     63  53  70 E5        30.02R
LONG BEACH     CLEAR     62  46  55 CALM      30.02R

CITY           SKY/WX    TMP DP  RH WIND       PRES   REMARKS
AVALON           N/A     59 N/A N/A MISG        N/A
FULLERTON      CLEAR     63  38  39 E3        30.01S
*GETTY CENTER    N/A     77  19  11 VRB14G20    N/A
HAWTHORNE      CLEAR     64  52  64 CALM      30.02R
*LEO CARRILLO    N/A     67  19  16 N6          N/A
*LOS ALAMITOS  FAIR      58  46  64 E1        30.02R
*REDONDO BEACH   N/A     61  47  58 CALM      30.01R
SANTA ANA      CLEAR     65  38  36 CALM      30.01F
STA MONICA APT CLEAR     63  53  70 CALM      30.01S
*STA MON PIER    N/A     65  58  77 CALM      30.00

$$

CAZ547-548-048-280600-
LA COUNTY VALLEYS AND INLAND EMPIRE


CITY           SKY/WX    TMP DP  RH WIND       PRES   REMARKS
BURBANK        CLEAR     64  27  24 CALM      30.03S
VAN NUYS       CLEAR     62  33  33 CALM      30.03S

CITY           SKY/WX    TMP DP  RH WIND       PRES   REMARKS
CORONA AIRPORT CLEAR     47  29  50 CALM      30.05R
*CHATSWORTH      N/A     62  33  34 CALM      30.01S
CHINO          CLEAR     54  40  59 N3        30.05S
MARCH AFB      CLEAR     55  16  22 CALM      30.08R
*NORTHRIDGE      N/A     61  30  31 CALM        N/A
ONTARIO        PTCLDY    65  28  24 NE3       30.05S
*PASADENA        N/A     68  30  24 CALM        N/A
POMONA         CLEAR     59  28  31 CALM      30.08R
RIVERSIDE      CLEAR     63  29  27 E6        30.05S
SAN BERNARDINO CLEAR    N/A N/A N/A NE6       30.07R
*SAN RAFAEL HI   N/A     75   7   7 SW5         N/A
*SAUGUS          N/A     65  15  14 N6          N/A
*WHITEMAN AP   NOT AVBL
*WHITTIER HILL   N/A     71  16  12 CALM        N/A
*WOODLAND HILL   N/A     57  28  33 SE1         N/A

$$

CAZ054-055-280600-
LA AND SAN BERNARDINO COUNTY MOUNTAINS


CITY           SKY/WX    TMP DP  RH WIND       PRES   REMARKS
*BIG BEAR AIRP CLEAR     32  10  40 CALM      30.35S
MT WILSON NWS    N/A     57  -6   7 MISG        N/A
SANDBERG       CLEAR     64  11  12 N12       30.22F

$$

CAZ028-029-059-060-099-280600-
ANTELOPE VALLEY AND SURROUNDING AREAS


CITY           SKY/WX    TMP DP  RH WIND       PRES   REMARKS
LANCASTER      CLEAR     45  16  31 W5        30.15S
PALMDALE       CLEAR     48  17  29 SW5       30.16S
*POPPY PARK      N/A     50  21  31 NW3         N/A

CITY           SKY/WX    TMP DP  RH WIND       PRES   REMARKS
29 PALMS       CLEAR     52  16  24 W3        30.20S
BARSTOW/DAGGET CLEAR     50  12  21 W3        30.14S
BISHOP         PTCLDY    35  14  42 N6        30.20F WCI  30
CHINA LAKE     CLEAR     45  11  25 SW5       30.14S
EDWARDS AFB    CLEAR     41   7  24 S3        30.14S
MOJAVE         FAIR      50  16  25 NW7       30.16S
NEEDLES        CLEAR     62  20  19 NW9       30.11S
VICTORVILLE    CLEAR     45  10  24 S3        30.16S

$$

CAZ039-040-280600-
VENTURA AND SANTA BARBARA COUNTY COAST


CITY           SKY/WX    TMP DP  RH WIND       PRES   REMARKS
CAMARILLO      CLEAR     54  43  66 CALM      30.01S
NWS OXNARD       N/A     58  42  56 CALM      30.00S
OXNARD AIRPORT CLEAR     61  42  49 NE3       30.01S
*POINT MUGU    CLEAR     59  47  64 N7        30.01F
SBA APT/GOLETA CLEAR     54  45  71 CALM      30.00S
*SANTA BARBARA   N/A     60  45  58 CALM      30.08S
*VENTURA         N/A     60  36  40 NE3       30.05S

$$

CAZ044-045-280600-
VENTURA COUNTY VALLEYS


CITY           SKY/WX    TMP DP  RH WIND       PRES   REMARKS
*SIMI VALLEY     N/A     62  31  30 CALM      29.98S
*OJAI            N/A     48  35  61 CALM      29.99F
*FILLMORE        N/A     55  37  51 CALM      29.93S

$$

CAZ053-280600-
VENTURA COUNTY MOUNTAINS


CITY           SKY/WX    TMP DP  RH WIND       PRES   REMARKS
*LOCKWOOD VLY    N/A     37  12  35 MISG        N/A
*ROSE VALLEY     N/A     37  19  48 MISG        N/A

$$

CAZ034-035-036-280600-
CENTRAL COAST AND SANTA YNEZ VALLEY


CITY           SKY/WX    TMP DP  RH WIND       PRES   REMARKS
SAN LUIS OBISP CLEAR     52  45  77 CALM      30.05S
SANTA MARIA    CLEAR     54  40  59 CALM      30.05F

CITY           SKY/WX    TMP DP  RH WIND       PRES   REMARKS
*CAL POLY SLO    N/A     50  46  87 CALM        N/A
*LOMPOC        CLEAR     48  43  81 CALM      30.05F
*PISMO BEACH     N/A     54  47  76 NE3       30.05S
*SANTA YNEZ    FAIR      52  37  58 E3        30.06S

$$

CAZ037-038-051-280600-
SAN LUIS OBISPO COUNTY INTERIOR AND CUYAMA VALLEY


CITY           SKY/WX    TMP DP  RH WIND       PRES   REMARKS
*CUYAMA          N/A     54  26  33 E2        30.07S
PASO ROBLES    CLEAR     53  35  50 E5        30.07S

$$

CAZ032-033-061-280600-
SOUTHERN DESERTS


CITY           SKY/WX    TMP DP  RH WIND       PRES   REMARKS
BLYTHE         CLEAR     58  22  24 NW6       30.07R
IMPERIAL       CLEAR     57  39  51 W7        30.03S
PALM SPRINGS   CLEAR     63  23  21 NW7       30.08S
THERMAL        CLEAR     50  33  52 N3        30.03S

$$

ELSEWHERE ACROSS THE WESTERN UNITED STATES AND MEXICO


CITY           SKY/WX    TMP DP  RH WIND       PRES   REMARKS
DENVER, CO     PTCLDY    57  18  21 S5        30.09S
GRAND CANYON,  MOCLDY    25   6  44 CALM      30.36S
HONOLULU, HI   PTCLDY    75  59  57 NE9G17    30.05R
KAHULUI, MAUI  PTCLDY    73  63  68 E7        30.07R
LAKE TAHOE, CA CLEAR     50  17  27 MISG      30.19F
LAS VEGAS, NV  MOCLDY    51  21  30 S9        30.13S
MAMMOTH LAKES, FAIR      36   9  32 N6        30.30F WCI  31
MEXICO CITY, M MOCLDY    50  23  34 W6        30.45S
PHOENIX, AZ    CLEAR     64  30  27 E6        30.06S
PORTLAND, OR   CLOUDY    55  48  77 S9        29.87S
RENO, NV       PTCLDY    57  16  20 VRB3      30.11S
SALT LAKE CITY PTCLDY    47  25  42 SE10      30.12F
SAN DIEGO, CA  PTCLDY    64  45  49 CALM      30.03S
SAN FRANCISCO, CLEAR     55  54  96 W9        30.07R
SAN JOSE, CA   CLEAR     52  44  74 CALM      30.06S
SEATTLE, WA    CLOUDY    54  50  86 S10G21    29.74S
TIJUANA, MEX   CLEAR     64  25  22 CALM      30.05F

$$

STATION/POSITION TIME  TEMP    WIND        PRES    VSBY  WAVE
                       AIR SEA DIR/SP/G                  HT/PER
                 (UTC) (F)     (DEG/KT/KT) (MB)    (MI)  (FT/S)
POINT ARGUELLO B NOT AVBL
WEST SANTA BARBA 0500   64 64  310/ 14/ 17 1015.6F         3/12
POINT CONCEPTION NOT AVBL
EAST SANTA BARBA 0500   65 66  220/  8/ 10 1016.0F
SANTA MONICA BAY 0500   66 65  330/  4/  6 1016.6R         2/13



USA.gov is the U.S. government's official web portal to all federal, state and local government web resources and services.